Regional Weather Roundup
Issued by NWS

Home | Current Version | Previous Version | Graphics & Text | Print | Product List | Glossary On
Versions: 1 2 3 4 5 6 7 8 9 10 11 12 13 14 15 16 17 18 19 20 21 22 23 24 25 26 27 28 29 30 31 32 33 34 35 36 37 38 39 40 41 42 43 44 45 46 47 48 49 50
000
ASUS43 KOAX 020110
RWRNE

WEATHER ROUNDUP FOR NEBRASKA
NATIONAL WEATHER SERVICE OMAHA NE
800 PM CDT SUN MAY 01 2016

NOTES: SATELLITE DATA IS BEING USED TO AUGMENT CLOUD COVER ABOVE
       12000 FEET.
       "FAIR" INDICATES FEW OR NO CLOUDS BELOW 12,000 FEET WITH NO
       SIGNIFICANT WEATHER AND/OR OBSTRUCTIONS TO VISIBILITY.

  * THESE STATIONS DO NOT REPORT WEATHER SUCH AS RAIN...SNOW OR FOG.

NEZ001>004-019>022-054>056-020200-
NEBRASKA PANHANDLE

CITY           SKY/WX    TMP DP  RH WIND       PRES   REMARKS
SCOTTSBLUFF    PTCLDY    52  29  41 N6        30.23F
ALLIANCE       PTCLDY    41  34  76 SW8       30.21S
CHADRON        CLEAR     54  31  41 NE9       30.21F
KIMBALL        CLEAR     40  30  66 NW3       30.25F
SIDNEY         CLEAR     44  28  53 CALM      30.25S
$$

NEZ057>060-069>072-079>082-020200-
SOUTHWEST NEBRASKA

CITY           SKY/WX    TMP DP  RH WIND       PRES   REMARKS
NORTH PLATTE   CLOUDY    53  31  42 N9        30.20R
IMPERIAL       MOCLDY    47  33  58 N9        30.23S
LEXINGTON      PTCLDY    49  39  67 E7        30.19S
MCCOOK         CLOUDY    50  37  61 E5        30.19S
OGALLALA       CLEAR     48  31  50 N9        30.23S
$$

NEZ005>010-023>029-035>040-094-020200-
NORTH CENTRAL NEBRASKA

CITY           SKY/WX    TMP DP  RH WIND       PRES   REMARKS
VALENTINE      CLEAR     53  31  42 NE8       30.20R
AINSWORTH      CLEAR     51  33  50 N8        30.19R
BROKEN BOW     MOCLDY    51  36  56 NE7       30.18R
O`NEILL        MOCLDY    52  37  55 NE8       30.18R
ORD            MOCLDY    51  38  60 NE5       30.17R
THEDFORD       PTCLDY    52  33  48 N9        30.20S
$$

NEZ041-046>049-061>064-073>077-083>087-020200-
SOUTH CENTRAL NEBRASKA

CITY           SKY/WX    TMP DP  RH WIND       PRES   REMARKS
GRAND ISLAND   CLOUDY    48  41  76 CALM      30.19R
AURORA         CLOUDY    47  44  89 CALM      30.18R
HASTINGS       CLOUDY    47  40  76 N8        30.17F
HEBRON         CLOUDY    48  41  77 N6        30.17R
HOLDREGE       CLOUDY    47  40  74 NE7       30.19S
KEARNEY *      CLOUDY    48  39  71 E3        30.20S
YORK           CLOUDY    48  45  87 N5        30.18R
$$

NEZ011>018-030>034-042>045-020200-
NORTHEAST NEBRASKA

CITY           SKY/WX    TMP DP  RH WIND       PRES   REMARKS
NORFOLK        CLOUDY    51  41  68 N3        30.15R
ALBION         CLOUDY    49  43  78 CALM      30.17R
BLAIR          CLOUDY    49  45  85 N3        30.13R
COLUMBUS *     CLOUDY    50  37  62 N6        30.17R
FREMONT        CLOUDY    50  43  77 CALM      30.15R
TEKAMAH        CLOUDY    51  47  86 N6        30.13R
WAYNE          CLOUDY    50  43  75 CALM      30.15R
$$

NEZ050>053-065>068-078-088>093-020200-
SOUTHEAST NEBRASKA

CITY           SKY/WX    TMP DP  RH WIND       PRES   REMARKS
LINCOLN        CLOUDY    50  42  74 N7        30.17R
OMAHA EPPLEY   MOCLDY    50  44  80 CALM      30.14R
BEATRICE       CLOUDY    47  42  81 N8        30.16R
FALLS CITY     CLOUDY    49  43  80 N7        30.12R
NEBRASKA CITY  CLOUDY    47  45  90 N8        30.14S
PLATTSMOUTH    CLOUDY    47  44  87 NW3       30.15R
$$

NEZ044-045-051>053-067-020200-
OMAHA AREA

CITY           SKY/WX    TMP DP  RH WIND       PRES   REMARKS
OMAHA EPPLEY   MOCLDY    50  44  80 CALM      30.14R
BLAIR          CLOUDY    49  45  85 N3        30.13R
FREMONT        CLOUDY    50  43  77 CALM      30.15R
MILLARD        CLOUDY    50  43  76 CALM      30.15R
OFFUTT AFB     CLOUDY    48  45  87 W5        30.13R
PLATTSMOUTH    CLOUDY    47  44  87 NW3       30.15R
WAHOO          CLOUDY    50  44  80 N3        30.15R
$$




USA.gov is the U.S. government's official web portal to all federal, state and local government web resources and services.